Regional Weather Roundup
Issued by NWS Albany, NY

Home | Current Version | Previous Version | Text Only | Print | Product List | Glossary On
Versions: 1 2 3 4 5 6 7 8 9 10 11 12 13 14 15 16 17 18 19 20 21 22 23 24 25 26 27
000
ASUS41 KALY 241910
RWRALY

NEW YORK STATE HOURLY WEATHER ROUNDUP
NATIONAL WEATHER SERVICE ALBANY NY
300 PM EDT SAT JUN 24 2017

NOTE: "FAIR" INDICATES FEW OR NO CLOUDS BELOW 12,000 FEET WITH NO
SIGNIFICANT WEATHER AND/OR NO OBSTRUCTIONS TO VISIBILITY.

NYZ032-033-038>043-046>054-057>066-NYZ062>081-082-084-242000-
EAST


CITY           SKY/WX    TMP DP  RH WIND       PRES   REMARKS
ALBANY         MOSUNNY   81  54  39 W22G30    29.72R
GLENS FALLS    SUNNY     82  51  34 W10G26    29.67R
POUGHKEEPSIE   SUNNY     84  55  36 W15G22    29.72R
NEWBURGH       MOSUNNY   82  55  39 NW17G29   29.76S
MONTGOMERY     MOSUNNY   83  52  34 W9        29.75R
WHITE PLAINS   MOSUNNY   82  54  36 NW20G29   29.75R
ISLIP          MOSUNNY   86  57  37 W14G26    29.71R
NEW YORK CITY  MOSUNNY   85  56  37 NW18G28   29.74R
CENTRAL PARK   SUNNY     83  57  41 VRB7      29.78R
$$

NYZ005>009-017-018-044>046-055-056-242000-
CENTRAL


CITY           SKY/WX    TMP DP  RH WIND       PRES   REMARKS
FULTON         PTSUNNY   75  52  44 W10G21    29.78R
SYRACUSE       PTSUNNY   75  56  51 NW14      29.76R
ROME           MOSUNNY   78  56  46 W16G24    29.75S
ELMIRA         NOT AVBL
BINGHAMTON     MOSUNNY   75  52  43 NW13G24   29.81F
MONTICELLO     MOSUNNY   77  52  41 NW16G24   29.82S
$$

NYZ026>034-041>043-087-242000-
NORTH


CITY           SKY/WX    TMP DP  RH WIND       PRES   REMARKS
WATERTOWN      SUNNY     72  58  61 SW17G23   29.74R
FORT DRUM      NOT AVBL
OGDENSBURG     FAIR      78  54  42 W13G20    29.66R
MASSENA        MOSUNNY   80  57  45 W12G22    29.64S
SARANAC LAKE   PTSUNNY   72  54  53 W9        29.70S
PLATTSBURGH    MOSUNNY   81  51  35 VRB5G23   29.63S
$$

NYZ001>004-010>016-019>021-085-242000-
WEST


CITY           SKY/WX    TMP DP  RH WIND       PRES   REMARKS
NIAGARA FALLS  PTSUNNY   76  52  43 NW16      29.80R
BUFFALO        MOSUNNY   73  59  61 SW18G29   29.81R
DUNKIRK        SUNNY     72  61  68 W16G24    29.86R
JAMESTOWN      MOSUNNY   72  52  49 W20G25    29.89R
WELLSVILLE     MOSUNNY   74  53  48 W13G25    29.87R
ROCHESTER      CLOUDY    70  58  65 W10       29.80R
PENN YAN       PTSUNNY   77  54  44 W10       29.80R
$$

             KEY
       WCI = WIND CHILL INDEX
       VSB = VISIBILITY
       HX  = HEAT INDEX
$$




USA.gov is the U.S. government's official web portal to all federal, state and local government web resources and services.